Weather History for KCUT - December, 2013

Change the Weather History Date:

Wednesday, December 18, 2013

  Actual Average Record
Temperature  
Mean Temperature 40 °F 23 °F  
Max Temperature 54 °F 33 °F 66 °F (1976)
Min Temperature 26 °F 13 °F -34 °F (1964)
Degree Days  
Heating Degree Days 25 42  
Month to date heating degree days 833 745  
Since 1 July heating degree days 2945 2926  
Cooling Degree Days 0 0  
Month to date cooling degree days 0 0  
Year to date cooling degree days 187 177  
Moisture  
Dew Point 19 °F    
Average Humidity 48    
Maximum Humidity 69    
Minimum Humidity 26    
Precipitation  
Precipitation 0.00 in 0.01 in 0.62 in (1973)
Month to date precipitation 0.40 0.21  
Year to date precipitation 21.82 18.78  
Sea Level Pressure  
Sea Level Pressure 29.74 in    
Wind  
Wind Speed 7 mph (NW)    
Max Wind Speed 16 mph    
Max Gust Speed 25 mph    
Visibility 10 miles    
Events      
T = Trace of Precipitation, MM = Missing Value Source: NWS Daily Summary

Daily Weather History Graph

Daily Weather History Graph

Search for Another Location

Airport or City:

Trip Planner

Search our weather history database for the weather conditions in past years. The results will help you decide how hot, cold, wet, or windy it might be!

Date:

Astronomy

Dec. 18, 2013 Rise Set
Actual Time 7:23 AM MST 4:19 PM MST
Civil Twilight 6:50 AM MST 4:51 PM MST
Nautical Twilight 6:14 AM MST 5:28 PM MST
Astronomical Twilight 5:39 AM MST 6:03 PM MST
Moon 5:55 PM MST (12/18) 8:02 AM MST (12/18)
Length of Visible Light 10h 01m
Length of Day
8h 55m
Full, 98% of the Moon is Illuminated
Dec 18
Full
Dec 25
Last Quarter
Jan 1
New
Jan 7
First Quarter
Jan 15
Full

Hourly Weather History & Observations

Time (MST) Temp. Windchill Dew Point Humidity Pressure Visibility Wind Dir Wind Speed Gust Speed Precip Events Conditions
12:53 AM 42.1 °F 34.9 °F 19.0 °F 40% 29.81 in 10.0 mi West 13.8 mph 20.7 mph N/A   Clear
1:53 AM 44.1 °F 38.6 °F 18.0 °F 35% 29.78 in 10.0 mi West 10.4 mph - N/A   Clear
2:53 AM 41.0 °F 35.8 °F 18.0 °F 40% 29.79 in 10.0 mi West 8.1 mph - N/A   Clear
3:53 AM 41.0 °F 34.7 °F 18.0 °F 40% 29.78 in 10.0 mi West 10.4 mph - N/A   Clear
4:53 AM 42.1 °F 36.1 °F 18.0 °F 38% 29.77 in 10.0 mi West 10.4 mph - N/A   Clear
5:53 AM 41.0 °F 35.8 °F 18.0 °F 40% 29.76 in 10.0 mi West 8.1 mph - N/A   Clear
6:53 AM 39.9 °F 35.1 °F 17.1 °F 40% 29.74 in 10.0 mi WNW 6.9 mph - N/A   Clear
7:53 AM 39.0 °F 35.7 °F 16.0 °F 39% 29.75 in 10.0 mi WSW 4.6 mph - N/A   Clear
8:53 AM 46.0 °F - 18.0 °F 33% 29.75 in 10.0 mi Calm Calm - N/A   Clear
9:53 AM 50.0 °F - 17.1 °F 27% 29.73 in 10.0 mi WNW 9.2 mph - N/A   Clear
10:53 AM 52.0 °F - 18.0 °F 26% 29.69 in 10.0 mi West 5.8 mph - N/A   Clear
11:53 AM 52.0 °F - 18.0 °F 26% 29.68 in 10.0 mi WSW 6.9 mph - N/A   Clear
12:53 PM 52.0 °F - 19.9 °F 28% 29.66 in 10.0 mi WSW 3.5 mph - N/A   Clear
1:53 PM 48.9 °F - 19.0 °F 31% 29.65 in 10.0 mi ESE 6.9 mph - N/A   Clear
2:53 PM 45.0 °F 40.6 °F 19.9 °F 37% 29.70 in 10.0 mi ESE 8.1 mph - N/A   Clear
3:53 PM 37.9 °F 32.1 °F 21.9 °F 53% 29.73 in 10.0 mi East 8.1 mph - N/A   Clear
4:53 PM 35.1 °F 32.2 °F 19.0 °F 52% 29.75 in 10.0 mi ENE 3.5 mph - N/A   Clear
5:53 PM 32.0 °F 28.7 °F 19.0 °F 59% 29.78 in 10.0 mi NNE 3.5 mph - N/A   Clear
6:53 PM 30.0 °F 23.2 °F 19.0 °F 64% 29.80 in 10.0 mi ENE 6.9 mph - N/A   Clear
7:53 PM 30.0 °F 24.1 °F 19.0 °F 64% 29.80 in 10.0 mi ENE 5.8 mph - N/A   Clear
8:53 PM 30.0 °F 24.1 °F 19.0 °F 64% 29.76 in 10.0 mi NE 5.8 mph - N/A   Clear
9:53 PM 28.9 °F 22.8 °F 19.0 °F 67% 29.74 in 10.0 mi ENE 5.8 mph - N/A   Clear
10:53 PM 28.0 °F 20.8 °F 19.0 °F 69% 29.73 in 10.0 mi ENE 6.9 mph - N/A   Clear
11:53 PM 26.1 °F 19.4 °F 19.0 °F 75% 29.73 in 10.0 mi NE 5.8 mph - N/A   Clear